Fort Stockton, TX

11:33 PM CDT on April 27, 2017 (GMT -0500)
Fort Stockton-Pecos County

Weather History for KFST - August, 2012

Change the Weather History Date:

Tuesday, August 21, 2012

  Actual Average Record
Temperature  
Mean Temperature 84 °F -  
Max Temperature 97 °F 90 °F 100 °F (1999)
Min Temperature 71 °F 68 °F 64 °F (1998)
Cooling Degree Days 19    
Growing Degree Days 34 (Base 50)    
Moisture  
Dew Point 53 °F    
Average Humidity 38    
Maximum Humidity 59    
Minimum Humidity 18    
Precipitation  
Precipitation 0.00 in - - ()
Sea Level Pressure  
Sea Level Pressure 29.85 in    
Wind  
Wind Speed 9 mph (SSE)    
Max Wind Speed 15 mph    
Max Gust Speed 21 mph    
Visibility 10 miles    
Events      
Averages and records for this station are not official NWS values.
T = Trace of Precipitation, MM = Missing Value Source: NWS Daily Summary

Daily Weather History Graph

Daily Weather History Graph

Search for Another Location

Airport or City:

Trip Planner

Search our weather history database for the weather conditions in past years. The results will help you decide how hot, cold, wet, or windy it might be!

Date:

Astronomy

Aug. 21, 2012 Rise Set
Actual Time 7:21 AM CDT 8:27 PM CDT
Civil Twilight 6:56 AM CDT 8:52 PM CDT
Nautical Twilight 6:26 AM CDT 9:21 PM CDT
Astronomical Twilight 5:56 AM CDT 9:52 PM CDT
Moon 11:30 AM CDT (8/21) 10:54 PM CDT (8/21)
Length of Visible Light 13h 55m
Length of Day
13h 05m
Waxing Crescent, 19% of the Moon is Illuminated
Aug 21
Waxing Crescent
Aug 24
First Quarter
Aug 31
Full
Sep 8
Last Quarter
Sep 15
New

Hourly Weather History & Observations

Time (CDT) Temp. Heat Index Dew Point Humidity Pressure Visibility Wind Dir Wind Speed Gust Speed Precip Events Conditions
12:53 AM 73.9 °F - 54.0 °F 50% 29.89 in 10.0 mi SSE 8.1 mph - N/A   Clear
1:53 AM 73.9 °F - 53.1 °F 48% 29.88 in 10.0 mi South 9.2 mph - N/A   Clear
2:53 AM 73.0 °F - 54.0 °F 51% 29.86 in 10.0 mi South 8.1 mph - N/A   Clear
3:53 AM 75.0 °F - 55.0 °F 50% 29.83 in 10.0 mi South 12.7 mph - N/A   Clear
4:53 AM 73.0 °F - 55.0 °F 53% 29.83 in 10.0 mi SW 9.2 mph - N/A   Clear
5:53 AM 73.0 °F - 55.9 °F 55% 29.84 in 10.0 mi SW 9.2 mph - N/A   Clear
6:53 AM 71.1 °F - 55.9 °F 59% 29.84 in 10.0 mi SSW 11.5 mph - N/A   Clear
7:53 AM 71.1 °F - 55.9 °F 59% 29.86 in 10.0 mi SW 13.8 mph - N/A   Clear
8:53 AM 73.0 °F - 55.9 °F 55% 29.87 in 10.0 mi SW 10.4 mph - N/A   Clear
9:53 AM 80.1 °F 80.4 °F 57.0 °F 45% 29.87 in 10.0 mi SW 12.7 mph - N/A   Clear
10:53 AM 84.0 °F 83.0 °F 55.9 °F 38% 29.88 in 10.0 mi SW 12.7 mph - N/A   Clear
11:53 AM 89.1 °F 87.1 °F 55.0 °F 31% 29.88 in 10.0 mi WSW 9.2 mph - N/A   Clear
12:53 PM 93.0 °F - 50.0 °F 23% 29.87 in 10.0 mi Variable 3.5 mph - N/A   Clear
1:53 PM 93.0 °F - 48.9 °F 22% 29.85 in 10.0 mi Calm Calm - N/A   Clear
2:53 PM 97.0 °F - 48.9 °F 19% 29.83 in 10.0 mi North 6.9 mph - N/A   Scattered Clouds
3:53 PM 95.0 °F - 46.0 °F 19% 29.81 in 10.0 mi WNW 5.8 mph - N/A   Clear
4:53 PM 96.1 °F - 46.0 °F 18% 29.80 in 10.0 mi East 5.8 mph - N/A   Clear
5:53 PM 93.9 °F - 48.9 °F 21% 29.80 in 10.0 mi ENE 15.0 mph 19.6 mph N/A   Partly Cloudy
6:53 PM 91.0 °F 88.7 °F 54.0 °F 28% 29.81 in 10.0 mi ENE 13.8 mph - N/A   Clear
7:53 PM 88.0 °F 86.7 °F 57.0 °F 35% 29.81 in 10.0 mi East 9.2 mph - N/A   Overcast
8:53 PM 88.0 °F - 48.9 °F 26% 29.82 in 10.0 mi East 6.9 mph - N/A   Scattered Clouds
9:53 PM 88.0 °F - 48.9 °F 26% 29.83 in 10.0 mi SE 12.7 mph 20.7 mph N/A   Mostly Cloudy
10:53 PM 86.0 °F - 48.9 °F 28% 29.85 in 10.0 mi SE 11.5 mph - N/A   Mostly Cloudy
11:53 PM 79.0 °F - 60.1 °F 52% 29.87 in 10.0 mi East 8.1 mph - N/A   Mostly Cloudy